#timestamp,LO_Frequency,Hit,StdDev 
1531533615.1,286046998.8,N
1531533616.0,286046998.8,N
1531533635.8,286046996.9,N
1531533655.6,286046998.4,N
1531533675.5,286047000.3,N
1531533695.3,286047000.7,N
1531533715.2,286046998.7,N
1531533735.9,286046998.7,N
1531533755.7,286046999.9,N
1531533775.6,286046998.7,N
1531533795.4,286046999.2,N
1531533815.2,286046999.6,N
1531533835.1,286046996.6,N
1531533836.0,286046996.6,N
1531533855.8,286046997.4,N
1531533875.7,286046998.3,N
1531533895.5,286047000.3,N
1531533915.3,286046998.3,N
1531533935.2,286046998.2,N
1531533955.0,286046998.7,N
1531533955.9,286046998.7,N
1531533975.7,286046998.4,N
1531533995.6,286047000.7,N
1531534015.4,286046998.5,N
1531534035.3,286047000.6,N
1531534055.1,286047000.8,N
1531534056.0,286047000.8,N
1531534075.8,286047000.2,N
1531534095.7,286047000.2,N
1531534115.5,286046999.8,N
1531534135.3,286047000.2,N
1531534155.2,286047000.0,N
1531534175.0,286047000.1,N
1531534175.9,286047000.1,N
1531534195.8,286047002.4,N
1531534215.6,286047002.5,N
1531534235.4,286047000.3,N
1531534255.3,286046999.2,N
1531534275.1,286046998.2,N
1531534295.8,286046996.6,N
1531534315.7,286046998.4,N
1531534335.5,286046997.5,N
1531534355.4,286046995.5,N
1531534375.2,286046994.0,Y
1531534395.0,286046996.2,P
1531534395.9,286046996.2,N
1531534415.8,286046997.9,N
1531534435.6,286046999.0,N
1531534455.5,286046999.3,N
1531534475.3,286046997.6,N
1531534495.1,286046997.7,N
1531534515.9,286046997.8,N
1531534535.7,286046999.5,N
1531534555.5,286046999.2,N
1531534575.4,286046998.1,N
1531534595.2,286046998.3,N
1531534615.1,286046999.3,N
1531534616.0,286046999.3,N
1531534635.8,286047001.1,N
1531534655.6,286046999.1,N
1531534675.5,286046997.5,N
1531534695.3,286046999.3,N
1531534715.1,286046999.4,N
1531534735.9,286046997.4,N
1531534755.7,286046995.0,Y
1531534775.6,286047000.9,P
1531534795.4,286047001.5,N
1531534815.2,286047001.0,N
1531534835.1,286046996.6,N
1531534836.0,286046996.6,N
1531534855.8,286046998.6,N
1531534875.6,286046998.3,N
1531534895.5,286046996.8,N
1531534915.3,286047001.0,N
1531534935.2,286047002.7,N
1531534955.9,286047002.3,N
1531534975.7,286047001.4,N
1531534995.6,286047001.7,N
1531535015.4,286047002.2,N
1531535035.3,286047003.1,N
1531535055.1,286047001.5,N
1531535056.0,286047001.5,N
1531535075.8,286047002.7,N
1531535095.7,286047002.6,N
1531535115.5,286047002.6,N
1531535135.3,286047000.7,N
1531535155.2,286046998.7,N
1531535175.0,286046998.2,N
1531535175.9,286046998.2,N
1531535195.8,286046998.6,N
1531535215.6,286046998.7,N
1531535235.4,286046998.8,N
1531535255.3,286046998.9,N
1531535275.1,286046996.6,N
1531535295.9,286046999.1,N
1531535315.7,286046997.2,N
1531535335.5,286046996.7,N
1531535355.4,286046996.7,N
1531535375.2,286046999.1,N
1531535395.0,286046999.4,N
1531535395.9,286046999.4,N
1531535415.8,286047000.6,N
1531535435.6,286047002.7,N
1531535455.5,286047002.8,N
1531535475.3,286047000.7,N
1531535495.1,286047002.8,N
1531535515.9,286047002.1,N
1531535535.7,286047004.0,N
1531535555.5,286047004.1,N
1531535575.4,286047005.6,N
1531535595.2,286047002.2,N
1531535615.1,286046999.9,N
1531535616.0,286046999.9,N
1531535635.8,286046998.8,N
1531535655.6,286047000.7,N
1531535675.5,286046998.5,N
1531535695.3,286047000.9,N
1531535715.2,286047001.8,N
1531535735.9,286047002.5,N
1531535755.7,286047003.9,N
1531535775.6,286046999.9,N
1531535795.4,286047000.9,N
1531535815.2,286047000.4,N
1531535835.1,286047000.6,N
1531535836.0,286047000.6,N
1531535855.8,286046998.6,N
1531535875.7,286047001.2,N
1531535895.5,286046998.3,N
1531535915.3,286047000.5,N
1531535935.2,286046999.9,N
1531535955.0,286047000.9,N
1531535955.9,286047000.9,N
1531535975.7,286047000.4,N
1531535995.6,286047004.1,N
1531536015.4,286047002.9,N
1531536035.3,286047003.3,N
1531536055.1,286047003.9,N
1531536056.0,286047003.9,N
1531536075.8,286047004.1,N
1531536095.7,286047004.2,N
1531536115.5,286047003.0,N
1531536135.3,286047003.0,N
1531536155.2,286047003.1,N
1531536175.0,286047005.8,Y
1531536175.9,286047005.8,P
1531536195.8,286046999.7,N
1531536215.6,286047000.4,N
1531536235.4,286047000.1,N
1531536255.3,286046998.2,N
1531536275.1,286046999.9,N
1531536295.9,286046998.3,N
1531536315.7,286047000.4,N
1531536335.5,286046999.0,N
1531536355.4,286046997.3,N
1531536375.2,286046995.0,N
1531536395.0,286046997.8,N
1531536395.9,286046997.8,N
1531536415.8,286046998.5,N
1531536435.6,286046998.9,N
1531536455.5,286047002.4,N
1531536475.3,286047000.3,N
1531536495.1,286047000.1,N
1531536515.9,286046999.4,N
1531536535.7,286046998.1,N
1531536555.5,286046997.0,N
1531536575.4,286046999.3,N
1531536595.2,286047001.1,N
1531536615.1,286047000.7,N
1531536616.0,286047000.7,N
1531536635.8,286047002.4,N
1531536655.6,286047000.2,N
1531536675.5,286047002.2,N
1531536695.3,286046998.7,N
1531536715.1,286046997.8,N
1531536735.9,286046997.6,N
1531536755.7,286046995.1,N
1531536775.6,286046995.5,N
1531536795.4,286046995.2,N
1531536815.2,286046996.1,N
1531536835.1,286046997.0,N
1531536836.0,286046997.0,N
1531536855.8,286046994.9,N
1531536875.7,286046995.3,N
1531536895.5,286046996.5,N
1531536915.3,286046999.2,N
1531536935.2,286047000.8,N
1531536955.9,286046999.2,N
1531536975.7,286046998.8,N
1531536995.6,286046999.4,N
1531537015.4,286046998.1,N
1531537035.3,286046997.0,N
1531537055.1,286046995.3,N
1531537056.0,286046995.3,N
1531537075.8,286046996.1,N
1531537095.7,286046995.4,N
1531537115.5,286046997.6,N
1531537135.3,286046996.1,N
1531537155.2,286046996.5,N
1531537175.0,286046997.0,N
1531537175.9,286046997.0,N
1531537195.8,286046997.3,N
